Regional Weather Roundup
Issued by NWS

Home | Current Version | Previous Version | Text Only | Print | Product List | Glossary Off
Versions: 1 2 3 4 5 6 7 8 9 10 11 12 13 14 15 16 17 18 19 20 21 22 23 24 25 26 27 28 29 30 31 32 33 34 35 36 37 38 39 40 41 42 43 44 45 46 47 48 49 50

000
ASUS43 KLOT 181710
RWRIL

ILLINOIS REGIONAL WEATHER ROUNDUP
NATIONAL WEATHER SERVICE CHICAGO/ROMEOVILLE IL
1200 PM CDT THU SEP 18 2014

NOTE: "FAIR" INDICATES FEW OR NO CLOUDS BELOW 12,000 FEET WITH NO
SIGNIFICANT WEATHER AND/OR OBSTRUCTIONS TO VISIBILITY.

* THESE STATIONS ARE NOT UNDER NWS QUALITY CONTROL. THEY ALSO MAY NOT
  REPORT WEATHER SUCH AS PRECIPITATION OR FOG.

ILZ001-002-007-009-015-016-024-181800-
NORTHWEST ILLINOIS

CITY           SKY/WX    TMP DP  RH WIND       PRES   REMARKS
MOLINE         SUNNY     70  53  54 E12       30.11F
STERLING*      SUNNY     70  54  56 SE8       30.13F
SAVANNA*       SUNNY     70  51  50 E8        30.13F
$$

ILZ003-004-008-010-011-017-018-181800-
NORTH CENTRAL ILLINOIS

CITY           SKY/WX    TMP DP  RH WIND       PRES   REMARKS
ROCKFORD       MOSUNNY   62  53  72 VRB5      30.18F
FREEPORT*      SUNNY     60  55  83 E8        30.18F
ROCHELLE*      SUNNY     64  52  64 NE7       30.16S
DE KALB*       MOSUNNY   62  55  77 N5        30.17S
PERU*          SUNNY     68  51  55 E7        30.14F
$$

ILZ005-006-012>014-019>023-181800-
NORTHEAST ILLINOIS

CITY           SKY/WX    TMP DP  RH WIND       PRES   REMARKS
CHICAGO-OHARE  PTSUNNY   67  54  63 N6        30.14F
CHICAGO-MIDWAY MOSUNNY   70  56  61 NE8       30.14F
AURORA         MOSUNNY   66  55  67 E9        30.16S
LANSING*       SUNNY     67  49  52 E6        30.15S
JOLIET*        SUNNY     67  49  53 CALM      30.15S
WAUKEGAN       CLOUDY    60  53  77 N7        30.17S
DUPAGE AIRPORT PTSUNNY   68  55  63 NE7       30.15S
KANKAKEE*      SUNNY     68  51  55 NE12      30.14F
WHEELING       CLOUDY    66  55  67 N7        30.17F
MORRIS*        SUNNY     69  50  50 E6        30.14S
ROMEOVILLE*    MOSUNNY   67  51  56 NE6       30.14S
NORTHERLY ISL    N/A     64  51  62 E6          N/A
$$

LMZ740>746-181800-
SOUTHERN LAKE MICHIGAN

STATION/POSITION SKY/WX   TEMP    WIND        PRES    VSBY  WAVE
                          AIR SEA DIR/SP/G                  HT/PER
                          (F)     (DEG/KT/KT) (MB)    (MI)  (FT/S)
SOUTHERN BUOY              62 63  220/  4/  6 1021.4R         3/ 7
WAUKEGAN HARBOR            59      30/ 11/ 13   N/A
HARRISON CRIB              61     360/  7/  9   N/A
BURNHAM HARBOR             64      60/  4/  7   N/A
CALUMET HARBOR             62      70/  7/  8 1019.7F
MICHIGAN CITY              66     340/  4/  5   N/A
MICHIGAN CITY 6N           63 66  330/  4/  6   N/A           0
ST. JOSEPH                 62 66  300/  4/  6   N/A           0
$$

ILZ025>027-034>036-040-047-049-050-058-095>099-181800-
WEST-CENTRAL ILLINOIS

CITY           SKY/WX    TMP DP  RH WIND       PRES   REMARKS
QUINCY         SUNNY     68  52  56 SE9       30.09F
GALESBURG*     SUNNY     72  54  53 E8        30.12R
MACOMB*        SUNNY     71  52  51 SE12      30.13S
JACKSONVILLE*  SUNNY     73  53  47 E9        30.10F
PITTSFIELD*    PTSUNNY   69  53  55 E7        30.10F
$$

ILZ028>032-037-038-041>044-048-051>054-059>061-181800-
CENTRAL ILLINOIS

CITY           SKY/WX    TMP DP  RH WIND       PRES   REMARKS
PONTIAC        SUNNY     72  48  43 E7        30.13S
DECATUR        SUNNY     71  50  47 E14G21    30.11S
PEORIA         SUNNY     72  51  47 E9        30.11F
LACON*         SUNNY     70  49  46 E8        30.11S
LINCOLN*       SUNNY     73  49  42 E9        30.08S
SPRINGFIELD    SUNNY     70  55  59 E9G17     30.10F
TAYLORVILLE    SUNNY     70  52  52 E8        30.09F
$$

ILZ033-039-045-046-055>057-062-063-181800-
EAST-CENTRAL ILLINOIS

CITY           SKY/WX    TMP DP  RH WIND       PRES   REMARKS
CHAMPAIGN      SUNNY     70  50  49 NE13      30.11F
DANVILLE*      SUNNY     68  45  42 NE12      30.09F
RANTOUL*       SUNNY     70  45  40 NE13      30.12F
MATTOON        SUNNY     70  48  45 E10G17    30.09F
PARIS*         SUNNY     71  50  47 NE6       30.11F
$$

ILZ079-100>102-181800-
SOUTHWEST ILLINOIS

CITY           SKY/WX    TMP DP  RH WIND       PRES   REMARKS
ALTON          PTSUNNY   68  54  60 E14       30.09S
CAHOKIA*       CLOUDY    70  54  56 E10       30.08S
SPARTA*        PTSUNNY   69  56  62 E6        30.08S HAZE
$$

ILZ064>066-069>071-074>076-080>082-084>086-088>090-092>094-181800-
SOUTH-CENTRAL ILLINOIS

CITY           SKY/WX    TMP DP  RH WIND       PRES   REMARKS
CARBONDALE     PTSUNNY   71  57  61 VRB3      30.06S
CAIRO*         CLOUDY    74  59  61 NE3       30.04S
EFFINGHAM*     MOSUNNY   71  50  47 E7        30.09F
MARION         PTSUNNY   70  57  64 N6        30.07R
MT. VERNON     PTSUNNY   70  55  60 E7        30.09S
CENTRALIA*     MOSUNNY   70  53  54 SE9       30.08S
SALEM*         CLOUDY    70  57  64 NE3       30.09S
METROPOLIS*    CLOUDY    73  57  56 NE5       30.03S
$$

ILZ067-068-072-073-078-083-087-091-181800-
SOUTHEAST ILLINOIS

CITY           SKY/WX    TMP DP  RH WIND       PRES   REMARKS
LAWRENCEVILLE  MOSUNNY   72  52  49 NE9       30.09S
FLORA*         MOSUNNY   70  52  53 NE9       30.09F
FAIRFIELD*     PTSUNNY  N/A N/A N/A E8        30.08S
HARRISBURG*    PTSUNNY   70  56  60 NE7       30.07S
ROBINSON*      MOSUNNY   72  56  57 NE8       30.10F
CARMI*         PTSUNNY   73  55  51 NE6       30.07S
$$

ABBREVIATIONS USED IN REMARKS
   TC - TEMPERATURE IN CELSIUS
  WCI - WIND CHILL INDEX
   HX - HEAT INDEX
  VSB - VISIBILITY
$$




USA.gov is the U.S. government's official web portal to all federal, state and local government web resources and services.